Content
SEND FEEDBACK

Daily
Averages
Monthly
Summary
Netherlands

HAARLEM, NETHERLANDS


Home > Europe > Netherlands
Elevation: 62 feet     Latitude: 52 28N     Longitude: 004 35E

WEATHER
 
SELECT A DAY
Number of Records: 301,990;   Date Range: 7/1/96 - 7/23/14
 
SHARE

PRINT THIS DATA

[ ← Previous Day ]
WEATHER ALMANAC - OCTOBER 1, 2013
[ Next Day → ]
[ °C ]   °F
Weather ElementAverageHighLow
Temperature51.3 °F60.8 °F (2:55 pm)41 °F (7:25 am)
Dewpoint41.7 °F46.4 °F (3:55 pm)37.4 °F (7:25 am)
Humidity69.5 %87 % (6:25 am)46 % (5:00 pm)
Barometer29.93 in29.99 in (11:00 pm)29.89 in (12:55 am)
Wind Speed11.3 mph17.3 mph (10:55 pm)
Weather ElementAverage
Visibility18.8 mi
Wind DirectionENE (81.3 °)

Weather ElementTotal
Precipitation---
Heating Degree Days14.1 (Base 65)
Growing Degree Days0.9 (Base 50)
Averaged from 55 records on October 1, 2013
WEATHER CONDITIONS BREAKOUT
WIND DIRECTION BREAKOUT
WEATHER BY HOUR - OCTOBER 1, 2013
[ °C ]   °F
Local TimeTemperatureDewpointHumidityBarometerVisibilityWind DirectionWind SpeedGust SpeedPrecipitationEventsConditions
12:55 AM50.0 °F39.2 °F66 %29.89 inEast (100°)12.7 mphClear
1:25 AM48.2 °F39.2 °F71 %29.89 inEast (90°)11.5 mphClear
1:55 AM48.2 °F39.2 °F71 %29.89 inEast (90°)11.5 mphClear
2:00 AM48.0 °F39.0 °F63 %29.91 in25.0 miEast (90°)11.2 mphPartly Cloudy
2:25 AM48.2 °F39.2 °F71 %29.89 inEast (90°)10.4 mphClear
2:55 AM46.4 °F39.2 °F76 %29.89 inEast (90°)10.4 mphClear
3:25 AM46.4 °F39.2 °F76 %29.89 inEast (90°)10.4 mphClear
3:55 AM44.6 °F39.2 °F81 %29.89 inEast (80°)9.2 mphClear
4:25 AM44.6 °F39.2 °F81 %29.89 inENE (70°)8.1 mphClear
4:55 AM44.6 °F39.2 °F81 %29.89 inENE (70°)8.1 mphClear
5:00 AM43.0 °F39.0 °F81 %29.92 in19.0 miENE (70°)8.9 mph
5:25 AM44.6 °F39.2 °F81 %29.89 inENE (70°)9.2 mphClear
5:55 AM44.6 °F39.2 °F81 %29.89 inENE (70°)11.5 mphClear
6:25 AM42.8 °F39.2 °F87 %29.89 inENE (70°)11.5 mphClear
6:55 AM42.8 °F39.2 °F87 %29.92 inENE (70°)9.2 mphClear
7:25 AM41.0 °F37.4 °F87 %29.92 inEast (80°)5.8 mphClear
7:55 AM41.0 °F37.4 °F87 %29.92 inENE (70°)8.1 mphClear
8:00 AM41.0 °F38.0 °F87 %29.94 in13.0 miENE (70°)6.7 mphPartly Cloudy
8:25 AM42.8 °F39.2 °F87 %29.92 inENE (70°)8.1 mphClear
8:55 AM44.6 °F41.0 °F87 %29.92 inEast (80°)8.1 mphClear
9:25 AM46.4 °F41.0 °F81 %29.92 inEast (80°)10.4 mphClear
9:55 AM48.2 °F41.0 °F76 %29.95 inEast (80°)11.5 mphClear
10:25 AM50.0 °F41.0 °F71 %29.95 inEast (80°)12.7 mphClear
10:55 AM51.8 °F41.0 °F67 %29.95 inEast (80°)12.7 mphClear
11:00 AM51.0 °F42.0 °F63 %29.96 in19.0 miEast (80°)13.4 mph
11:25 AM53.6 °F42.8 °F67 %29.95 inEast (80°)10.4 mphClear
11:55 AM53.6 °F42.8 °F67 %29.95 inENE (70°)13.8 mphClear
12:25 PM55.4 °F42.8 °F63 %29.95 inEast (80°)11.5 mphClear
12:55 PM57.2 °F44.6 °F63 %29.95 inEast (80°)11.5 mphClear
1:25 PM59.0 °F44.6 °F59 %29.95 inEast (90°)10.4 mphClear
1:55 PM59.0 °F44.6 °F59 %29.95 inEast (90°)11.5 mphClear
2:00 PM59.0 °F44.0 °F47 %29.95 in16.0 miEast (80°)13.4 mphPartly Cloudy
2:25 PM59.0 °F42.8 °F55 %29.92 inEast (80°)12.7 mphClear
2:55 PM60.8 °F44.6 °F55 %29.92 inEast (80°)11.5 mphClear
3:25 PM60.8 °F44.6 °F55 %29.92 inENE (70°)13.8 mphClear
3:55 PM60.8 °F46.4 °F59 %29.92 inEast (80°)12.7 mphClear
4:25 PM60.8 °F44.6 °F55 %29.92 inEast (80°)13.8 mphClear
4:55 PM60.8 °F44.6 °F55 %29.92 inEast (80°)12.7 mphClear
5:00 PM60.0 °F45.0 °F46 %29.93 in18.0 miENE (70°)13.4 mph
5:25 PM59.0 °F44.6 °F59 %29.92 inEast (80°)15.0 mphClear
5:55 PM59.0 °F44.6 °F59 %29.92 inEast (80°)12.7 mphClear
6:25 PM59.0 °F44.6 °F59 %29.92 inEast (80°)11.5 mphClear
6:55 PM55.4 °F44.6 °F67 %29.95 inEast (80°)9.2 mphClear
7:25 PM53.6 °F44.6 °F72 %29.95 inEast (80°)9.2 mphClear
7:55 PM51.8 °F44.6 °F76 %29.95 inEast (80°)8.1 mphClear
8:00 PM52.0 °F44.0 °F66 %29.98 in18.0 miEast (80°)8.9 mphPartly Cloudy
8:25 PM51.8 °F44.6 °F76 %29.95 inEast (80°)10.4 mphClear
8:55 PM53.6 °F44.6 °F72 %29.98 inEast (80°)11.5 mphClear
9:25 PM53.6 °F42.8 °F67 %29.98 inEast (90°)11.5 mphClear
9:55 PM51.8 °F41.0 °F67 %29.98 inEast (90°)15.0 mphClear
10:25 PM51.8 °F41.0 °F67 %29.98 inEast (90°)15.0 mphClear
10:55 PM51.8 °F41.0 °F67 %29.98 inEast (90°)17.3 mphClear
11:00 PM51.0 °F40.0 °F57 %29.99 in22.0 miEast (100°)15.7 mph
11:25 PM50.0 °F41.0 °F71 %29.98 inEast (100°)13.8 mphClear
11:55 PM50.0 °F41.0 °F71 %29.98 inEast (100°)12.7 mphClear
Hourly data recorded from EHAM, located miles away from Haarlem, Netherlands







STORIES FROM OUR PARTNERS